2022-132D (54038 NORAD) Tracking and Keplerian Element Data

This shows tracking and keplerian element data for the satellite.

Feedback or suggestion? Click here.




ElementValue
Catalog54038
Name2022-132D
Epoch Orbit336
Epoch Day308.20722321
Epoch Year2022
RAAN313.6477
Inclination97.5911
Eccentricity0.0099755
Argument of Perigee156.3052
Mean Anonmoly204.3026
Mean Motion15.14541268
Decay Rate0.00043649
L11 54038U 22132D 22308.20722321 .00043649 00000+0 20836-2 0 9990
L22 54038 97.5911 313.6477 0099755 156.3052 204.3026 15.14541268 3368



Live tracking and technical data element details for 2022-132D (NORAD 54038). 2022-132D can be tracked NOW for your location showing map with azimuth and elevation plus other details from your city location.







IsCatalogInMostPopularTable: catalog: 54038, numindb: 7
Update: records affected: 1



GetName: 54038 2022-132D

Hit Count: updated at: Sun, 11 Jun 2023 01:50:27 GMT